Wind_Speed
13 13 14 15 16 17 18 18 20 21 20 21 21 20 21 22 22 21 22 23 23 26
12 12 13 14 15 16 18 18 19 20 19 21 22 22 21 21 21 22 21 21 23 25
10 10 11 12 14 16 17 18 19 21 21 20 22 21 20 21 21 22 22 22 25 26
8 8 9 11 12 14 15 17 20 21 22 23 25 25 20 20 22 23 23 24 24 23
6 8 9 10 12 13 15 16 17 19 20 22 26 27 21 23 24 23 23 25 24 23
3 6 8 11 13 13 14 15 16 18 20 21 23 25 24 24 25 22 21 22 23 22
3 4 6 8 9 9 11 14 15 16 19 20 22 22 24 24 27 26 24 22 20 23
2 4 5 6 7 8 10 14 16 15 18 20 22 24 22 20 22 26 28 27 24 23
3 4 6 7 8 9 11 12 14 16 17 20 22 20 20 21 22 23 26 31 31 29
5 5 6 8 9 11 12 12 15 16 16 19 22 20 20 22 21 24 27 31 33 31
5 6 7 7 8 10 11 13 16 17 18 19 22 21 19 21 24 25 27 29 33 33
6 6 7 8 9 10 11 12 15 17 18 21 22 23 21 20 22 26 27 29 30 32
7 7 8 9 10 11 12 13 13 15 18 19 21 24 24 23 23 25 27 27 28 31
8 8 9 11 12 11 12 12 13 13 15 18 20 21 25 25 23 24 26 27 30 32
Wind_Direction
11 6 358 353 353 351 349 349 343 348 349 347 343 336 324 318 315 310 304 301 293 284
9 9 7 7 10 11 7 4 359 359 359 357 352 343 338 335 326 325 317 311 303 294
4 9 10 10 15 20 14 13 12 11 10 5 359 353 351 348 347 332 324 313 296 288
8 11 9 10 13 18 16 17 18 17 17 14 13 10 12 6 347 341 337 334 327 309
14 13 9 15 13 12 12 16 19 16 17 18 19 16 22 10 355 352 348 340 336 336
46 36 25 23 22 19 12 16 19 16 14 14 17 18 21 16 9 5 358 354 354 348
39 36 36 32 28 23 16 22 26 24 21 19 17 15 19 20 16 18 16 9 8 0
61 49 47 44 35 27 21 25 25 25 26 22 20 18 15 19 15 21 26 27 24 22
70 60 56 51 45 40 37 31 28 29 28 26 24 18 22 26 24 23 26 31 31 30
81 74 65 58 53 52 46 41 38 35 32 31 28 23 34 35 29 31 31 34 30 34
86 78 73 67 60 58 49 44 42 38 35 32 32 31 32 40 37 33 35 33 33 32
89 81 74 71 66 59 54 47 37 33 29 30 32 31 37 36 39 37 35 34 34 29
97 86 75 67 65 59 51 46 37 25 25 25 29 27 27 31 34 34 33 35 35 33
104 87 73 64 61 62 56 46 39 23 13 20 22 24 24 23 26 28 29 29 29 30
Height
1488 1486 1484 1481 1477 1475 1472 1470 1467 1463 1460 1456 1454 1449 1446 1444 1442 1440 1439 1436 1436 1436
1487 1485 1484 1481 1478 1476 1473 1471 1467 1463 1459 1456 1452 1448 1443 1441 1438 1435 1433 1432 1431 1429
1487 1485 1483 1481 1478 1476 1474 1471 1468 1464 1459 1456 1451 1446 1442 1439 1436 1433 1430 1427 1424 1423
1487 1485 1483 1481 1479 1476 1474 1471 1467 1464 1460 1456 1450 1446 1443 1440 1436 1432 1427 1423 1419 1416
1488 1486 1483 1480 1478 1476 1474 1471 1468 1465 1461 1456 1451 1448 1444 1440 1436 1430 1426 1421 1416 1412
1488 1486 1483 1480 1478 1477 1475 1472 1469 1465 1461 1457 1453 1449 1444 1441 1435 1431 1427 1421 1416 1410
1486 1485 1482 1481 1479 1478 1475 1472 1469 1466 1462 1458 1454 1450 1444 1441 1437 1433 1426 1419 1414 1409
1485 1483 1482 1481 1479 1478 1475 1473 1470 1467 1463 1459 1455 1450 1447 1444 1440 1434 1429 1422 1415 1409
1484 1483 1482 1480 1479 1477 1476 1474 1471 1468 1464 1460 1458 1455 1451 1446 1441 1437 1430 1423 1417 1410
1483 1482 1481 1480 1479 1478 1477 1475 1472 1470 1467 1464 1462 1458 1453 1449 1444 1438 1433 1425 1420 1414
1483 1482 1481 1480 1480 1479 1478 1476 1474 1472 1470 1467 1463 1460 1456 1451 1446 1441 1435 1429 1424 1418
1483 1483 1482 1481 1481 1480 1479 1478 1476 1474 1472 1469 1465 1462 1458 1453 1448 1444 1437 1432 1427 1422
1484 1484 1483 1483 1482 1481 1480 1480 1479 1476 1474 1471 1467 1463 1458 1455 1450 1446 1440 1436 1431 1426
1485 1485 1485 1484 1484 1483 1482 1482 1481 1479 1475 1472 1468 1464 1461 1457 1453 1448 1444 1439 1434 1430